Theta_e
321 321 321 321 321 321 321 321 321 321 321 321 321 321 322 322 322 321 321 321 321 321 321 321 321 322 322 322 322 323 321 322 325 326 326 329 340 347 348 361 364 368 369 355 353 351 348 347 347 352 349 347 345 342 349 347 345 339 328 324 320 324 321 330 327 331 333 330 332 335 339 337 333 341 342 340 338 339 336 337 339 343 342 346 347 345 341 340
320 320 321 321 321 321 321 320 320 320 320 320 321 321 321 321 321 321 321 320 320 320 321 321 322 322 322 322 323 323 322 322 324 325 325 341 348 352 359 364 363 369 369 351 349 347 344 343 346 345 344 340 349 339 348 341 347 332 328 325 318 325 328 335 334 334 334 332 333 335 339 337 335 337 337 333 331 333 334 336 340 342 343 345 346 344 340 340
320 320 320 321 320 320 320 320 320 320 319 320 320 320 320 320 320 320 320 320 320 320 321 321 321 322 322 322 322 322 322 324 327 327 332 353 356 357 364 362 363 369 364 350 350 348 346 348 349 347 343 339 341 333 342 341 341 338 329 322 324 329 332 336 337 335 338 336 331 334 336 339 339 338 341 333 331 335 331 331 337 338 338 340 343 342 340 340
319 319 320 320 320 319 319 319 319 319 319 319 319 319 319 319 319 319 320 320 320 320 321 321 321 321 322 322 323 323 323 325 324 328 336 354 355 363 364 362 364 369 365 354 351 348 350 349 347 345 340 336 338 342 335 341 337 338 332 324 326 332 328 335 339 339 338 339 335 335 336 336 338 336 335 331 329 333 334 337 335 336 338 338 340 342 340 339
319 319 320 320 319 319 319 319 319 318 319 319 319 319 319 319 319 319 320 321 320 320 320 321 321 321 322 323 322 323 323 321 326 337 350 355 359 364 363 362 365 363 364 352 348 348 347 343 345 343 339 334 338 339 336 338 340 337 331 334 335 334 330 338 340 341 339 339 335 334 334 335 339 338 338 334 330 330 335 339 337 340 341 338 338 340 340 338
319 319 319 319 319 318 318 318 318 318 318 318 318 318 318 318 319 319 320 320 320 320 320 320 321 321 322 322 323 324 320 311 330 340 355 356 363 363 364 364 367 361 363 349 344 342 342 340 340 336 334 333 332 330 332 336 340 325 332 333 337 335 333 340 342 342 341 338 336 335 337 338 337 336 339 338 335 337 340 339 339 343 342 343 341 340 339 338
318 318 319 319 318 318 317 317 318 318 318 318 318 318 318 318 318 319 319 319 320 320 320 320 321 322 322 322 322 322 321 319 331 343 355 360 362 365 366 365 367 359 358 348 342 340 339 337 338 334 335 333 332 337 334 331 338 331 326 333 337 341 338 343 342 340 339 340 337 340 344 337 337 333 340 336 339 341 340 339 339 341 342 343 341 340 339 338
318 318 318 318 318 317 317 317 317 318 318 318 318 318 318 318 318 318 319 319 320 320 320 320 321 322 322 322 324 324 326 326 338 347 358 360 362 364 364 355 356 356 353 348 342 339 339 338 336 337 332 328 328 334 331 335 336 331 331 335 336 342 343 342 341 340 340 339 340 341 336 336 338 337 340 336 338 341 340 340 340 343 341 342 343 341 342 337
318 318 317 318 317 317 317 317 317 317 317 317 317 317 317 317 318 318 318 319 320 320 320 321 321 322 322 320 320 317 321 334 340 344 357 350 348 360 350 345 353 352 350 348 347 340 336 335 335 336 326 328 330 332 329 330 324 331 332 335 337 339 342 342 341 340 339 339 340 336 336 338 341 343 337 338 343 345 344 340 340 338 338 342 341 339 342 336
318 318 317 317 317 316 316 317 317 317 317 317 316 316 316 317 317 318 319 319 320 320 320 321 322 322 321 322 326 314 331 338 341 343 339 344 346 347 345 344 347 349 349 343 343 338 335 336 335 337 336 331 331 326 334 328 327 339 336 337 337 338 341 342 339 338 338 335 339 335 334 335 340 339 329 341 346 344 346 341 337 336 336 338 340 341 340 337
317 317 317 317 316 316 316 317 317 317 317 317 316 316 316 317 317 318 318 319 320 321 321 322 322 322 321 326 322 315 338 335 340 340 341 344 346 340 342 344 345 347 348 342 340 340 338 338 339 336 333 328 331 329 330 329 337 336 335 335 335 337 339 339 337 336 338 334 337 335 333 338 338 336 334 341 343 344 343 340 340 335 335 336 337 337 341 341
317 317 317 316 315 316 316 316 317 317 316 316 316 316 316 317 318 318 319 320 320 321 321 322 322 322 324 324 320 318 328 337 340 340 345 344 342 341 345 346 345 348 346 339 338 340 339 339 339 334 325 334 324 332 328 336 337 334 336 329 331 332 333 336 334 334 335 333 336 336 332 330 332 329 336 340 343 342 341 340 341 333 334 337 336 336 338 338
316 316 316 315 315 315 316 317 317 316 317 316 316 316 317 317 318 319 319 319 321 322 323 322 323 325 324 318 319 327 329 336 337 338 345 350 344 342 345 349 345 347 347 342 339 340 341 340 338 332 334 330 328 327 331 336 335 335 333 330 328 329 327 335 337 335 332 334 338 336 317 323 330 333 336 340 341 341 340 339 337 333 334 337 336 335 338 338
316 316 315 315 315 315 316 316 316 316 316 316 316 316 317 318 319 321 321 320 321 321 322 323 322 323 324 322 326 327 329 336 340 334 336 346 345 342 344 349 349 347 348 342 343 342 340 341 339 337 336 330 327 333 327 328 332 325 331 330 323 321 320 335 334 332 327 336 334 336 317 321 329 333 337 341 341 339 337 337 338 334 334 334 334 337 338 338
315 315 315 315 315 315 316 315 316 316 316 315 315 316 317 318 319 321 322 321 322 322 322 322 323 325 323 319 325 326 362 327 329 334 334 334 338 339 340 343 344 344 344 343 341 342 341 340 336 331 328 334 333 329 324 321 329 328 320 316 320 316 321 333 336 330 326 336 338 332 320 321 328 331 338 338 338 338 334 337 337 335 335 335 334 335 337 336
315 315 315 315 314 315 315 315 315 315 315 315 315 316 317 318 320 322 323 323 323 324 325 323 325 325 318 312 321 337 324 318 319 333 335 333 334 335 341 341 343 343 342 341 343 341 340 338 331 329 329 330 326 321 322 321 316 320 317 317 313 317 322 325 332 335 334 336 336 330 318 324 327 333 336 337 337 335 335 336 336 338 336 334 336 335 337 337
314 315 315 315 315 315 315 315 315 315 315 315 315 316 317 320 322 324 324 323 323 324 325 327 329 329 309 319 329 321 319 321 323 328 334 335 335 337 339 338 336 336 340 340 341 338 335 332 334 331 329 323 324 322 317 312 314 315 318 315 314 315 319 318 329 331 331 332 329 333 323 323 328 332 335 336 336 334 335 335 336 336 335 335 335 333 334 337
314 314 314 314 315 315 314 315 315 314 315 315 315 317 318 322 325 324 325 322 326 327 325 327 325 321 315 323 314 316 324 322 320 323 332 336 337 337 337 334 335 335 336 334 336 330 333 327 329 322 324 323 323 318 311 307 310 310 312 313 312 315 319 318 321 326 329 330 324 325 326 324 327 334 332 335 337 335 334 335 334 334 334 335 334 332 334 331
314 314 314 314 314 314 315 315 314 315 315 315 316 320 323 324 322 323 325 323 321 319 312 315 314 305 304 312 318 320 320 323 324 322 325 333 336 337 337 338 334 331 327 326 327 328 329 326 327 320 315 318 319 318 314 314 316 313 313 312 315 312 314 316 321 327 329 324 328 325 320 321 325 328 333 334 336 338 335 332 333 334 334 335 333 331 332 331
314 314 314 314 314 314 314 314 314 314 314 314 316 320 324 326 321 320 322 323 315 315 315 317 316 314 314 315 316 321 324 324 318 320 325 332 334 332 332 332 329 329 326 321 324 326 329 321 318 316 317 319 320 319 319 318 318 316 315 314 313 312 316 320 321 325 328 325 323 320 324 324 324 325 329 333 335 334 331 333 332 333 334 335 333 332 332 331
314 313 314 313 314 314 314 313 314 314 313 313 314 316 312 317 312 311 316 322 323 321 317 316 317 317 315 316 319 319 316 318 320 320 324 334 332 329 324 326 323 320 322 325 324 328 326 318 317 321 322 322 321 321 321 319 318 316 314 313 312 314 313 320 320 325 328 323 321 325 323 323 325 327 328 332 330 330 332 332 332 333 334 334 334 334 335 336
313 314 313 313 313 314 313 313 313 313 313 315 317 319 318 319 321 322 320 312 319 324 323 320 319 316 320 319 321 322 320 315 316 318 324 329 327 322 323 321 320 317 322 323 324 321 319 317 320 323 325 324 322 322 321 319 316 316 314 313 312 315 319 321 321 325 326 324 318 322 321 322 325 328 327 327 328 329 331 333 333 333 333 333 335 334 336 336
314 313 313 313 313 313 313 313 312 312 313 319 317 320 318 324 325 325 323 317 314 319 318 320 317 315 315 319 320 322 315 313 312 316 318 323 324 323 322 318 317 318 320 323 317 317 313 317 322 325 325 322 322 322 320 319 317 314 314 312 310 315 313 313 318 323 324 322 319 321 322 321 327 328 328 330 330 330 332 332 333 334 333 332 335 336 335 335
313 313 313 313 313 313 312 311 312 314 318 320 321 320 324 324 323 323 320 312 311 318 319 318 320 317 314 313 319 319 315 315 316 314 321 321 319 325 321 320 317 316 315 319 320 318 317 321 326 325 324 322 319 320 319 316 313 315 314 313 312 312 314 314 316 322 324 323 327 321 323 318 322 322 324 330 332 331 330 331 332 333 335 335 335 336 337 336
313 314 313 313 312 312 311 310 313 323 327 324 323 325 326 326 326 325 319 314 315 314 322 320 321 320 319 323 321 314 316 316 317 320 320 320 319 322 320 323 320 315 315 317 319 318 319 323 325 323 323 322 320 317 318 316 311 313 315 314 313 314 314 315 317 317 314 314 319 317 309 310 319 320 321 324 326 330 330 329 329 330 332 333 332 335 336 336
313 313 313 312 312 311 310 312 324 318 318 316 318 324 326 328 328 328 319 310 305 312 317 309 322 314 324 315 317 316 317 310 318 320 321 321 324 321 322 318 320 314 318 317 317 319 320 325 324 321 321 319 319 318 318 318 312 309 312 316 315 315 314 315 315 315 310 308 318 319 309 307 317 317 320 322 323 324 329 329 329 329 331 331 332 333 333 334
313 313 313 313 312 311 310 316 317 316 314 319 324 327 327 327 337 327 314 306 301 312 309 315 315 315 320 317 316 317 303 307 318 320 320 323 319 324 316 316 318 321 323 322 318 314 323 322 323 323 320 318 316 315 318 317 313 309 315 316 315 313 312 313 314 313 314 317 317 319 315 310 309 315 321 321 322 322 325 328 329 329 330 328 332 332 333 333
313 313 313 313 311 310 309 311 312 314 317 321 326 325 324 328 330 326 311 296 298 315 309 311 315 320 316 317 317 312 311 315 309 314 320 323 322 319 316 315 316 317 320 319 309 320 321 318 320 320 320 317 315 318 320 319 314 313 317 317 314 314 314 314 314 313 315 313 310 313 316 310 309 315 321 321 317 320 322 325 328 330 331 329 331 332 333 333
312 312 311 311 310 309 311 311 313 315 322 324 324 324 325 328 323 314 308 298 311 313 323 311 322 317 314 317 313 314 313 315 308 314 319 322 323 319 312 315 318 319 321 319 313 319 322 321 321 322 319 315 319 321 322 320 314 317 317 317 316 316 315 314 313 313 313 310 308 311 314 308 308 314 316 320 318 318 322 324 326 330 328 329 330 332 332 333
312 311 311 310 310 315 320 314 313 321 324 326 325 326 324 321 315 305 301 293 314 304 313 313 312 310 313 310 310 313 311 312 314 316 317 316 319 320 319 322 317 317 316 320 318 319 322 328 327 323 320 321 321 322 323 321 319 320 318 314 313 313 313 314 314 314 311 305 307 312 313 311 303 311 314 314 315 319 321 325 326 328 329 328 330 332 331 330
311 310 310 309 307 314 315 314 320 324 325 327 329 324 321 317 307 302 296 303 312 310 315 311 310 315 309 308 306 312 311 311 312 315 311 316 316 317 316 314 319 314 313 315 316 318 321 321 321 323 326 324 323 320 323 323 321 318 313 311 311 310 312 312 312 315 305 305 310 313 312 311 303 309 315 320 322 322 322 322 325 326 328 327 331 329 329 330
309 309 309 309 311 313 310 315 326 327 328 327 325 321 315 303 307 299 301 315 302 307 309 309 312 311 309 311 310 309 307 309 312 313 310 311 311 310 310 307 312 305 305 308 308 317 314 317 321 322 327 323 320 317 319 320 320 316 313 311 305 305 307 302 307 302 302 302 310 312 314 310 308 314 316 319 321 321 324 325 326 326 327 329 330 330 331 331
308 308 308 309 310 310 312 316 321 323 322 321 319 317 309 302 296 302 303 309 302 310 309 314 310 310 310 309 308 310 310 305 311 312 313 313 311 311 312 311 314 310 303 308 308 309 311 317 318 320 321 324 321 313 313 313 315 313 310 308 304 301 300 298 302 305 305 309 312 312 315 308 312 314 319 318 320 323 325 326 325 329 329 330 330 331 332 333
307 308 309 313 315 315 317 321 321 322 321 320 316 311 307 300 299 314 306 307 307 313 313 311 311 311 310 306 308 310 304 308 310 310 312 310 309 307 309 311 312 312 310 309 306 306 303 306 313 317 314 321 319 318 318 315 313 312 314 310 308 307 302 300 301 300 302 306 309 313 309 307 305 311 318 320 322 325 325 324 326 329 330 334 333 332 331 333
306 308 313 317 317 319 320 321 323 324 322 316 310 306 298 299 305 306 306 308 311 312 311 314 310 309 308 309 311 311 309 304 310 311 310 309 306 308 308 308 311 312 312 304 307 308 306 308 316 320 321 321 317 321 322 317 313 314 314 314 308 307 311 303 307 305 304 304 304 308 307 311 311 320 320 323 323 323 324 325 328 327 327 329 328 329 329 331
308 320 326 323 322 322 323 323 323 323 319 312 305 301 299 303 302 309 307 313 312 309 311 312 310 306 306 307 310 309 312 307 308 309 309 309 310 308 311 312 310 312 309 304 308 304 307 305 316 319 321 320 318 321 319 320 306 311 311 307 309 315 312 307 307 309 309 305 302 311 310 312 315 316 319 321 321 321 322 324 325 326 328 328 327 329 329 329
315 320 320 325 325 328 326 325 323 322 319 310 303 299 304 306 310 310 314 310 310 311 310 304 305 304 304 304 307 308 309 309 308 307 306 310 307 311 310 312 315 313 312 310 307 312 305 307 314 316 315 320 323 321 320 320 318 314 307 310 316 317 315 309 302 306 303 299 303 307 305 307 308 310 317 318 317 319 320 321 323 325 327 328 328 330 331 332
313 318 322 324 328 330 328 326 325 322 315 307 301 305 308 305 311 312 314 312 312 312 307 305 307 308 305 305 305 307 309 305 306 307 305 309 305 314 311 310 315 314 314 314 308 310 311 303 310 315 317 320 322 320 317 320 321 314 312 318 309 305 303 308 306 299 299 299 302 306 307 307 309 309 312 313 315 317 319 326 324 323 324 325 327 330 332 332
314 316 317 323 331 331 329 330 325 318 311 303 301 301 306 308 312 311 314 314 313 310 306 308 305 308 307 306 308 309 309 304 307 306 304 307 304 312 311 313 312 315 316 314 309 310 312 303 307 315 315 319 319 317 309 312 318 319 319 315 316 311 307 305 306 307 307 301 301 303 305 303 310 311 313 313 316 318 319 320 320 322 323 323 328 326 330 336
317 319 318 330 332 332 333 329 320 314 306 300 302 303 309 307 310 314 315 314 311 308 307 306 309 306 308 308 309 307 309 309 307 307 307 309 307 314 311 315 312 314 315 316 312 313 308 313 301 311 317 317 310 314 311 313 310 311 311 311 312 311 314 311 310 307 304 303 302 302 300 305 315 316 314 315 317 318 319 321 326 325 324 327 330 336 335 341
321 316 320 332 332 334 331 323 312 306 304 306 307 306 308 307 310 312 315 315 312 314 309 308 307 306 308 308 307 310 308 309 308 307 308 308 309 306 314 314 314 313 316 314 312 312 309 309 304 308 310 309 312 317 317 316 316 313 311 309 310 308 306 303 302 311 308 304 304 301 300 310 313 318 319 318 319 320 323 321 321 322 326 331 334 337 335 337
315 312 318 331 334 332 324 310 309 310 306 303 303 306 307 319 311 312 312 314 313 309 312 309 308 307 308 308 310 310 309 308 309 308 309 307 311 310 313 316 316 316 313 310 310 314 313 311 308 305 308 310 313 318 320 319 318 316 314 311 313 312 310 306 298 304 307 308 309 307 303 308 318 319 319 319 321 321 323 323 323 325 327 328 331 335 345 344
317 314 326 330 332 329 318 307 309 307 305 307 310 310 311 312 311 313 312 312 308 310 308 307 307 307 310 309 310 310 311 308 309 307 309 309 310 313 316 316 317 315 315 313 314 314 327 308 305 306 310 313 316 317 319 318 317 314 314 315 313 309 310 308 307 309 305 307 304 304 302 307 314 327 324 320 322 323 325 323 327 326 330 332 341 350 351 350
317 318 320 328 331 329 315 303 302 304 306 309 308 308 311 311 312 311 310 312 310 308 307 306 308 310 309 312 311 308 312 305 310 310 308 312 310 316 316 316 317 314 313 313 311 314 307 309 306 303 303 306 308 312 312 316 315 312 311 313 314 314 313 312 311 312 306 306 306 303 299 307 316 322 321 321 319 320 323 324 327 325 328 334 343 356 360 361
314 319 321 321 327 325 312 312 309 307 306 307 307 306 308 311 314 314 312 310 311 309 309 307 308 310 310 311 311 312 312 309 308 312 311 311 311 316 316 316 316 315 316 317 332 317 308 308 306 299 298 296 297 299 302 305 308 312 313 313 314 312 311 309 306 309 302 311 309 305 306 314 316 321 319 320 320 324 329 323 325 325 328 334 336 342 355 358
317 311 317 318 318 317 315 317 314 312 311 311 308 309 310 309 313 314 312 310 311 311 311 311 313 312 310 311 309 309 310 313 309 310 310 309 312 314 316 316 316 315 323 340 324 317 310 310 309 306 303 302 306 310 312 313 311 308 310 311 311 313 314 312 310 308 304 310 307 312 309 311 313 314 316 318 321 318 322 324 324 323 330 342 349 356 358 359
318 313 315 311 317 314 312 314 312 314 311 314 307 311 308 309 310 310 313 307 311 312 315 314 312 310 309 309 310 309 310 310 313 311 311 310 312 314 316 316 316 318 337 328 323 315 313 308 309 309 308 307 309 310 312 313 310 311 310 310 311 312 312 311 308 306 322 307 303 315 323 309 312 314 316 318 319 320 323 331 331 331 334 340 348 352 354 359
313 317 319 320 312 308 309 310 313 313 314 314 310 313 309 308 308 307 311 312 312 314 310 313 314 313 313 311 310 307 309 310 311 309 312 313 312 313 312 315 314 327 322 315 317 313 309 306 310 309 308 310 310 310 311 311 312 311 311 311 310 311 311 309 310 311 311 306 304 316 319 311 313 314 317 320 323 320 331 336 339 334 333 339 344 345 347 354
317 316 317 320 313 316 316 315 315 313 313 313 311 312 310 310 309 311 313 311 311 311 314 308 310 312 313 315 313 310 311 308 308 313 312 311 311 311 310 312 314 316 315 313 315 319 312 307 310 311 309 310 310 310 311 310 310 311 311 312 312 311 311 311 310 312 311 310 311 311 320 312 314 316 318 319 324 327 326 330 336 336 337 341 340 340 341 345
309 309 311 316 315 314 317 318 318 315 311 314 309 312 312 312 310 312 314 313 311 309 316 311 311 313 313 313 314 312 315 315 313 312 316 315 313 313 311 312 312 315 316 312 313 316 310 308 312 310 308 308 310 311 310 310 309 308 310 312 312 312 312 312 311 312 312 311 312 311 312 314 317 323 321 323 325 326 328 325 330 337 336 336 331 330 332 334
311 316 316 310 308 314 316 317 315 313 312 313 310 312 312 312 311 314 314 317 315 313 314 311 313 315 317 315 314 315 318 318 318 317 318 317 312 316 311 315 317 313 314 313 313 314 312 308 311 309 304 305 309 309 309 309 309 308 308 310 310 310 309 310 310 313 311 310 311 311 311 311 320 322 323 324 323 326 327 327 329 332 334 334 335 335 336 339
314 315 317 313 308 315 312 316 315 313 309 313 312 313 312 312 314 314 312 318 319 319 319 317 318 316 317 314 315 317 319 319 319 320 321 321 321 321 321 319 318 314 314 312 316 311 312 310 308 307 303 304 308 310 309 309 307 304 305 309 311 312 313 313 314 315 313 313 310 309 310 321 323 325 321 320 319 321 325 327 327 332 337 335 336 337 336 342
Wind_Speed
21 21 21 20 20 20 20 21 20 20 20 19 19 19 18 18 17 16 15 14 14 14 14 14 14 13 13 13 14 13 12 12 11 10 13 19 9 6 17 17 21 19 14 15 13 15 12 11 6 4 3 2 2 5 4 3 2 0 1 3 5 5 4 6 4 4 4 10 4 5 3 4 5 8 8 10 7 7 10 10 8 5 8 14 17 18 19 19
21 21 21 21 21 21 21 21 21 21 20 20 19 19 18 18 17 17 16 15 14 14 14 14 14 13 14 13 13 13 12 10 13 14 21 10 10 15 18 22 22 20 16 14 14 13 12 11 12 4 2 1 2 3 2 2 5 3 1 1 3 4 2 4 4 3 3 10 11 8 4 3 2 1 3 2 8 6 8 9 9 12 16 19 18 19 19 19
22 22 22 22 21 21 21 21 21 21 21 20 20 20 19 19 18 17 17 16 15 14 14 14 14 14 14 14 13 14 11 12 13 18 21 14 14 18 19 22 23 20 17 13 11 10 10 11 9 8 2 3 2 4 6 2 3 4 3 2 3 3 4 1 3 2 5 4 9 12 5 5 8 5 7 4 8 9 9 10 10 12 14 16 17 18 19 18
21 22 21 21 21 21 21 21 21 21 21 21 20 20 20 20 19 18 17 16 15 14 14 15 14 13 13 13 11 11 10 12 9 7 10 22 20 19 21 22 23 20 17 10 12 10 6 6 7 8 4 6 3 10 4 4 2 3 2 1 3 2 2 1 2 2 3 3 3 7 9 7 12 3 3 5 10 7 7 8 11 12 13 16 16 18 17 18
21 22 21 21 21 21 22 22 22 22 21 21 21 20 20 20 19 19 17 17 15 15 14 14 14 13 13 13 14 10 9 7 7 11 21 23 22 22 21 22 22 20 18 12 9 8 12 9 13 8 2 6 6 4 7 6 4 5 5 9 4 5 4 4 2 2 2 1 4 3 2 5 13 5 2 5 6 7 6 7 11 11 11 14 17 17 17 18
21 21 21 22 22 22 22 22 22 22 22 21 21 21 21 21 20 19 18 17 16 15 14 14 13 13 13 12 11 9 6 3 4 6 15 23 23 21 21 22 22 20 17 13 11 7 10 10 10 8 7 8 5 6 5 5 7 2 10 7 1 2 2 2 3 5 2 3 2 3 4 4 8 5 2 5 7 4 8 9 9 8 10 11 15 16 17 18
22 22 22 21 22 22 23 22 22 22 22 22 21 21 21 21 20 20 19 17 17 15 14 14 13 13 12 12 12 7 8 10 3 9 14 21 22 22 18 21 20 17 15 14 11 8 7 5 8 5 7 9 6 7 14 4 4 8 4 2 3 1 3 4 5 5 5 4 4 1 1 4 4 6 2 5 4 6 6 9 10 10 12 10 13 15 16 17
22 22 22 22 22 23 23 23 22 22 22 22 22 22 22 22 21 20 19 18 16 15 14 13 12 12 10 10 6 7 8 8 11 17 15 19 20 19 18 17 18 15 13 13 10 11 4 4 7 7 9 7 5 5 13 12 15 7 2 2 2 1 4 3 5 7 7 6 4 4 3 6 3 3 5 6 4 3 6 10 9 8 11 10 10 13 12 16
22 22 22 22 23 23 23 23 23 23 23 22 22 22 22 22 21 20 19 17 16 15 13 13 12 11 7 6 7 9 6 7 16 20 19 18 19 18 20 15 18 16 14 14 18 5 3 5 9 7 6 7 9 9 2 6 4 4 3 3 3 3 4 3 7 8 8 3 5 3 3 4 3 3 4 5 6 6 8 2 11 12 11 9 10 13 10 14
22 22 23 23 23 24 24 23 24 24 24 23 22 22 23 22 22 20 19 18 15 14 12 12 13 10 10 6 8 7 3 11 15 17 21 20 19 21 20 15 20 18 15 15 13 5 9 8 9 7 13 8 12 10 15 5 4 6 3 4 5 5 3 6 8 9 6 3 4 2 3 3 2 3 3 3 4 5 4 6 9 11 13 12 10 9 10 13
22 23 23 23 24 24 25 24 25 24 24 23 22 22 22 22 22 21 19 17 15 14 12 12 10 10 7 7 7 7 7 12 12 13 19 21 21 20 20 16 19 16 16 13 10 10 10 9 10 7 5 6 11 1 4 6 13 9 8 5 4 4 5 5 8 9 2 0 4 3 3 3 2 2 2 3 3 5 3 3 3 12 13 12 13 12 10 9
22 22 22 23 24 24 24 25 25 25 25 23 23 24 23 21 21 21 20 17 15 14 12 10 10 6 8 8 8 11 4 7 13 12 15 20 19 20 20 16 18 17 15 11 10 6 7 10 13 8 8 11 4 21 1 15 11 12 11 4 4 5 3 3 5 4 2 1 3 3 5 4 3 5 7 8 7 6 5 5 7 13 12 12 14 13 10 9
22 22 22 23 24 24 25 25 25 26 24 24 25 23 23 22 21 21 16 15 12 11 10 9 8 6 7 8 13 19 14 6 13 16 13 14 13 14 15 15 16 16 15 15 9 7 7 9 12 13 12 10 8 8 12 16 14 12 8 6 3 1 1 6 5 7 4 2 9 11 2 5 7 8 10 11 10 9 6 8 9 10 12 10 12 11 10 11
23 22 23 23 24 25 26 25 25 25 25 25 24 24 23 23 21 19 14 13 13 12 10 8 7 7 6 10 10 3 6 3 12 14 15 14 15 16 16 15 15 14 14 15 11 7 11 8 14 13 8 12 10 9 5 11 14 4 7 7 4 2 4 12 10 7 5 10 14 17 4 5 8 8 10 12 13 12 11 8 9 11 12 11 11 10 9 11
23 23 23 24 25 26 26 26 25 26 25 23 24 25 25 23 20 17 12 12 12 11 9 8 7 5 6 8 14 10 6 5 8 13 13 16 14 14 16 15 15 16 14 13 10 10 12 13 13 12 10 10 11 13 7 5 8 8 6 6 7 6 8 14 13 20 11 12 17 9 3 5 9 10 11 14 12 14 11 11 10 10 11 12 11 12 10 11
24 24 23 24 26 26 26 26 24 22 23 23 24 26 25 21 17 14 12 11 11 7 7 6 9 10 10 11 2 8 7 12 13 11 14 15 15 14 15 14 13 16 16 14 10 9 10 5 9 9 11 11 12 6 5 7 8 8 7 6 5 4 9 9 12 16 11 14 12 9 3 7 7 10 14 13 14 13 13 12 10 10 11 12 10 11 10 11
23 22 21 22 23 26 26 24 24 23 25 24 26 26 23 18 13 10 8 8 7 7 6 5 3 10 5 2 3 8 10 12 10 12 13 14 15 14 15 15 15 16 15 14 12 10 11 11 7 11 11 10 8 7 7 5 6 4 9 6 1 7 8 5 14 11 12 12 11 14 5 8 13 15 9 11 16 15 13 14 13 10 9 10 10 12 11 10
22 21 22 21 22 25 26 25 24 25 25 25 26 25 19 19 15 11 9 6 6 7 9 10 10 7 12 17 12 12 11 10 12 12 13 13 15 15 15 13 12 13 13 13 13 13 9 10 8 9 8 8 4 8 6 3 7 2 2 10 3 4 8 11 12 13 13 12 8 9 5 11 13 20 16 14 13 9 15 14 12 12 11 9 10 11 12 11
24 24 25 21 21 26 26 26 25 25 26 27 26 25 19 15 8 7 6 5 5 4 5 8 8 9 2 4 20 13 12 12 11 14 15 14 14 14 14 12 11 13 11 11 9 13 9 10 7 7 9 7 6 7 8 8 6 7 5 4 11 3 6 9 12 15 14 10 5 3 6 11 14 15 21 16 17 15 12 12 13 11 11 11 10 10 11 11
24 25 23 21 21 25 28 25 23 21 24 20 14 10 4 4 5 4 8 9 12 12 13 5 16 13 19 14 8 16 4 9 13 13 13 14 12 15 16 13 13 12 13 11 10 12 9 10 8 8 8 8 9 8 9 6 7 5 8 7 3 8 5 12 13 13 12 10 12 9 11 11 13 13 15 19 16 15 15 14 12 13 12 11 10 10 10 12
25 23 22 22 22 25 26 24 21 21 18 14 13 7 6 8 9 3 1 11 17 18 20 19 14 15 12 12 8 11 7 6 8 11 14 12 14 13 14 14 13 13 13 14 12 3 11 11 11 12 11 6 9 12 12 10 6 9 7 3 1 4 7 11 13 13 12 4 9 10 8 12 10 12 16 17 15 12 12 15 15 14 13 13 14 13 11 11
26 25 23 22 22 24 27 24 24 21 19 11 7 7 9 9 8 8 8 10 11 19 23 18 15 16 12 17 10 7 10 9 15 12 12 13 14 14 12 15 15 14 12 14 12 11 8 10 12 13 8 9 9 10 11 10 9 7 7 5 2 4 8 11 13 11 10 5 3 5 8 4 10 11 12 11 12 13 14 11 13 15 14 12 13 15 14 13
27 27 24 24 23 24 25 27 24 23 11 5 7 11 11 11 9 8 9 11 15 18 17 18 18 16 15 12 11 4 8 12 12 16 14 13 14 16 12 14 14 14 15 14 13 10 9 12 17 14 12 12 13 10 11 12 8 7 6 3 2 6 8 7 10 12 11 3 6 11 5 9 8 9 9 9 10 11 13 13 13 13 12 13 13 13 12 13
27 27 26 25 27 25 26 27 27 14 9 13 12 14 12 11 10 9 10 9 11 13 14 16 17 16 16 15 10 9 11 10 12 15 15 15 15 14 15 15 16 15 15 16 16 13 13 11 12 11 12 13 12 9 11 8 7 7 7 6 7 9 9 4 9 12 12 9 7 12 1 6 8 8 8 7 9 9 12 13 13 11 10 11 12 11 13 11
26 26 26 28 26 26 27 27 11 5 7 13 15 18 15 10 6 7 10 9 10 14 17 16 12 14 14 12 11 14 11 12 15 10 14 16 17 13 14 12 12 14 16 17 17 15 10 8 15 13 12 11 11 10 10 7 6 10 9 12 8 6 14 6 12 9 6 3 7 7 5 1 5 8 9 9 8 7 9 13 14 13 12 11 13 11 11 13
25 26 27 26 25 25 30 10 2 12 14 12 12 5 4 4 6 7 7 6 9 7 14 14 11 13 10 16 13 12 12 14 14 12 11 15 14 14 9 13 10 14 16 17 14 9 7 8 15 15 14 12 14 12 9 8 7 8 3 6 2 5 6 7 9 7 7 3 4 8 3 6 5 5 11 10 10 9 7 7 15 13 12 12 12 13 12 13
23 23 24 25 24 21 13 2 12 17 11 3 1 6 6 5 5 8 6 6 9 7 11 8 13 6 10 13 15 12 13 11 10 14 14 16 16 13 16 12 12 10 10 8 8 8 7 1 13 19 15 13 12 11 8 11 8 2 3 13 9 2 9 8 7 8 5 6 9 9 7 6 5 4 11 10 10 12 10 8 8 12 14 13 14 15 13 13
22 21 22 22 21 12 8 12 14 11 11 9 9 9 8 5 5 6 5 5 5 11 9 6 1 6 8 11 17 14 11 7 14 16 17 14 16 14 16 16 14 14 13 10 10 5 6 10 15 19 14 11 11 10 10 12 9 7 11 8 14 5 13 11 6 5 4 6 5 6 13 6 5 4 10 11 10 12 12 12 10 9 10 10 12 13 13 12
21 20 20 20 21 27 15 10 7 11 9 11 12 11 7 7 8 6 6 8 5 5 5 10 1 7 6 11 17 14 15 13 11 14 17 14 17 11 13 19 16 16 14 14 12 11 8 12 14 16 11 10 10 12 13 13 11 9 2 6 9 10 9 5 8 6 6 2 3 7 10 4 6 8 8 11 10 13 13 14 14 12 13 12 11 12 11 11
21 21 19 17 18 13 3 10 13 18 15 12 11 11 11 9 6 6 6 9 8 8 9 6 10 10 12 13 13 17 18 13 11 12 18 14 16 16 14 11 15 15 15 14 16 12 10 8 13 12 12 9 11 15 15 15 15 15 7 10 6 9 8 4 4 4 4 4 6 11 10 7 4 7 8 9 11 11 12 12 13 14 14 14 12 14 14 12
23 21 18 13 9 6 10 10 17 19 15 12 9 10 8 6 7 6 9 3 6 8 8 8 10 10 15 16 13 15 17 15 14 12 15 15 14 15 12 13 12 12 12 13 13 15 11 12 12 8 9 10 13 15 15 15 15 5 6 9 6 8 8 6 5 3 4 5 8 11 8 15 6 8 9 14 14 15 14 16 17 18 16 14 9 10 13 14
25 23 20 13 13 9 8 6 7 9 9 10 9 7 6 7 7 9 7 7 11 10 9 9 11 11 15 15 13 15 14 16 14 13 13 12 12 13 14 13 9 11 12 11 11 11 15 14 10 12 12 17 16 13 12 15 11 7 7 9 9 2 4 6 3 6 6 5 3 7 6 8 9 4 7 7 9 13 14 15 18 19 19 16 12 13 9 11
27 25 25 19 15 12 18 21 15 12 13 12 8 6 7 7 9 11 12 8 2 6 7 6 11 12 13 14 14 14 17 15 15 12 14 15 14 14 17 17 12 11 10 11 12 10 11 14 16 14 12 13 15 12 11 13 11 10 10 8 8 6 6 6 5 5 6 6 7 8 5 7 1 4 5 5 9 9 14 9 10 16 19 19 17 13 12 11
28 27 17 10 10 14 12 12 11 13 10 8 7 6 8 9 10 8 14 12 5 4 8 6 13 9 13 12 12 13 14 17 16 12 14 11 14 12 14 19 19 13 13 10 10 11 10 11 14 16 11 13 16 14 12 9 11 11 11 11 8 4 5 4 5 7 6 4 5 12 7 1 7 5 8 6 12 12 13 12 10 6 11 18 18 16 13 14
31 28 16 11 12 14 17 13 10 10 7 6 7 8 10 11 10 10 9 10 9 6 6 3 5 9 12 12 12 15 12 12 18 14 14 14 13 13 13 14 20 18 10 12 9 9 13 10 9 18 11 13 17 15 15 14 10 12 13 10 12 8 6 8 4 6 6 6 7 7 5 3 3 13 10 8 11 8 12 11 19 15 11 16 10 12 12 13
24 9 6 6 9 10 14 11 11 9 7 7 8 9 12 11 8 10 4 8 10 2 9 9 8 8 8 10 11 15 19 12 17 14 13 16 14 14 15 12 16 19 14 12 5 9 6 9 9 14 18 16 17 16 16 13 9 4 9 12 10 7 8 8 8 10 12 5 7 5 5 5 9 13 15 10 10 7 6 7 11 15 16 15 14 11 10 10
9 12 7 10 11 9 12 12 9 8 7 9 9 11 11 11 16 17 4 5 13 14 7 6 8 9 8 9 9 14 16 16 14 14 10 14 14 16 15 15 15 19 21 13 11 10 10 5 7 11 18 16 14 17 16 15 12 5 9 13 15 15 9 7 6 4 7 6 5 7 6 6 6 4 10 11 10 9 10 10 9 10 17 19 15 13 12 10
11 8 12 12 9 11 12 12 11 8 8 9 12 14 10 14 13 15 8 5 6 5 8 6 4 9 9 9 10 13 15 14 12 15 13 14 10 15 16 13 16 16 19 19 13 8 9 10 7 11 12 15 14 14 16 17 16 12 10 5 10 9 9 9 9 6 5 6 5 6 5 2 5 4 3 6 5 9 8 6 4 12 9 9 13 14 11 11
10 7 5 9 10 14 12 12 9 8 8 10 11 11 12 17 18 18 14 8 5 10 7 10 11 6 11 9 9 15 14 13 12 12 12 11 12 15 17 11 14 17 16 18 15 12 10 11 4 10 14 11 14 12 13 13 15 18 14 12 5 8 7 8 7 5 3 8 5 5 8 5 7 4 13 11 11 2 13 8 2 5 4 5 5 8 13 6
6 5 3 14 13 12 12 11 7 8 9 12 10 11 9 13 13 13 11 8 6 8 7 10 8 9 8 11 11 8 15 15 13 11 13 8 13 13 17 17 13 16 16 16 14 11 11 6 11 6 14 10 12 10 13 12 13 14 13 11 8 9 5 8 5 10 8 6 4 3 5 4 4 3 3 10 11 9 8 5 4 3 2 2 11 10 9 1
7 7 4 10 13 12 11 8 9 10 11 10 13 12 13 11 10 14 7 6 7 7 13 11 9 8 8 7 7 9 7 13 12 12 12 11 12 9 13 13 13 13 15 14 14 11 10 8 10 9 10 12 10 14 16 15 14 13 13 12 9 10 10 7 7 1 6 7 4 4 6 4 4 2 3 1 3 8 11 12 6 5 4 6 7 10 11 8
5 5 6 9 12 14 11 9 8 9 8 11 11 11 11 7 14 10 3 5 10 9 8 12 12 11 8 8 6 8 8 8 12 14 11 12 16 12 10 14 15 16 11 10 11 11 11 6 7 10 8 9 12 13 18 18 15 13 12 13 12 12 7 6 5 5 5 8 7 5 6 1 6 7 2 4 6 2 2 5 10 6 1 4 9 7 8 11
7 3 8 13 13 15 11 8 8 9 11 11 14 16 15 9 10 8 9 7 9 7 10 10 10 10 9 10 8 7 7 9 14 14 13 16 14 14 11 16 12 13 8 8 11 10 11 10 8 9 9 9 13 15 15 16 16 14 14 15 15 14 11 10 9 9 9 7 8 5 7 2 6 3 1 9 6 6 4 5 11 5 13 9 6 5 6 6
9 6 5 8 12 13 10 9 10 10 10 13 15 16 15 11 7 10 12 13 10 8 10 9 10 11 12 9 9 11 4 8 7 15 14 12 13 15 18 14 13 11 10 6 8 10 10 10 10 7 6 6 9 11 12 14 13 11 12 12 13 13 14 14 12 10 11 6 9 6 6 3 7 2 3 3 5 9 10 9 4 4 3 7 3 4 3 3
9 8 6 7 10 11 10 9 9 7 11 13 13 15 14 8 7 13 12 11 11 13 10 10 11 8 12 10 12 12 9 10 5 10 13 9 10 11 14 16 17 12 12 8 10 6 10 6 11 11 10 10 10 10 11 12 15 11 14 16 15 17 19 15 13 5 6 5 8 7 5 2 9 2 5 4 7 7 5 4 8 8 6 5 5 5 2 3
4 6 8 7 9 10 11 12 12 9 9 10 10 12 12 12 9 13 14 15 13 13 13 12 8 13 14 12 13 10 12 8 11 4 8 10 11 9 8 13 14 12 13 2 3 10 7 8 10 11 11 10 8 7 6 10 10 12 14 16 18 19 20 14 10 7 6 4 6 4 7 4 6 8 9 6 5 7 6 9 9 10 11 8 6 4 4 5
7 6 1 3 7 10 10 10 11 10 10 6 9 11 14 11 12 11 15 11 12 13 9 9 10 9 12 13 10 11 12 12 10 13 10 12 13 9 8 12 14 14 2 8 5 8 6 9 12 14 16 17 17 11 12 13 14 15 17 16 18 19 14 11 11 11 3 5 9 3 5 8 7 8 8 7 5 2 7 14 9 9 9 8 7 6 4 7
6 5 6 7 7 4 9 10 11 12 15 10 10 9 9 12 12 11 12 11 11 12 12 9 13 14 12 11 10 9 10 12 12 13 12 10 11 15 14 17 14 17 7 9 11 9 8 9 9 13 14 15 17 19 17 14 12 13 13 16 17 15 16 16 16 14 14 10 10 6 4 5 4 7 7 6 3 10 14 15 12 9 6 4 4 5 5 5
7 8 8 14 7 8 9 8 10 12 14 13 8 6 10 12 10 10 5 8 10 10 12 11 12 14 15 13 11 9 10 10 9 10 11 9 14 9 10 4 9 4 11 10 7 6 7 10 11 10 13 12 14 16 18 20 17 17 16 15 15 15 17 18 19 18 18 16 14 13 8 11 8 7 2 4 13 12 8 9 9 5 5 4 4 12 15 14
7 8 8 13 11 12 11 9 7 9 10 8 8 7 9 10 10 9 8 9 7 12 7 12 13 13 16 18 13 10 7 7 6 6 7 12 11 10 8 8 6 11 16 14 10 9 8 8 10 12 10 13 16 17 18 20 18 18 15 17 17 18 21 20 16 17 17 17 18 16 13 10 6 6 8 7 3 10 9 8 7 5 6 18 19 13 6 2
7 7 7 9 11 8 10 10 8 7 8 7 8 9 10 10 12 7 7 6 9 6 6 12 10 6 8 14 12 3 10 4 4 6 5 8 6 4 10 4 5 7 14 11 9 10 13 10 9 10 11 12 12 15 16 17 19 19 18 17 16 15 16 11 10 11 16 14 16 17 10 8 9 13 11 9 7 7 6 5 5 9 16 16 12 9 9 7
8 8 8 6 9 10 11 9 10 8 8 7 8 10 9 10 9 4 9 5 8 10 6 6 5 8 5 8 8 5 3 6 8 7 6 8 8 8 8 7 9 9 6 10 7 11 9 8 9 9 11 11 13 14 15 16 15 17 19 19 19 17 12 12 13 12 15 15 13 11 2 9 9 9 8 5 3 4 8 6 7 13 10 13 9 6 5 6
Wind_Direction
349 348 347 346 345 344 343 342 342 342 341 340 340 338 337 336 335 331 328 320 313 308 308 305 304 304 303 306 306 306 309 291 296 253 224 241 265 163 142 132 149 175 182 167 174 168 168 170 150 244 136 183 256 258 238 237 79 299 314 290 298 246 291 342 42 79 118 126 149 106 127 155 173 190 218 197 149 93 103 91 104 127 127 144 136 141 141 139
347 347 346 344 344 344 342 342 341 341 340 338 338 338 336 335 333 331 326 321 315 309 306 305 304 304 304 305 308 307 306 290 275 261 240 238 174 139 142 147 156 177 185 181 179 175 169 175 141 222 144 203 63 267 187 185 154 178 189 161 271 329 345 310 42 49 61 106 145 142 192 163 190 149 239 161 145 155 100 108 103 107 109 121 135 140 143 149
346 346 346 344 344 343 343 342 340 339 339 338 336 335 335 333 332 329 327 322 317 311 306 306 306 305 306 307 307 301 295 292 266 252 249 175 141 143 148 152 163 177 189 179 180 169 185 182 149 159 194 255 114 298 255 197 155 208 111 311 274 219 259 92 342 58 60 56 134 136 227 161 89 7 336 209 115 109 127 121 126 115 126 133 138 144 147 155
345 346 345 345 343 342 342 342 340 338 337 336 335 333 333 332 330 327 325 323 316 311 309 305 305 306 306 303 302 303 284 281 269 225 169 139 143 149 154 159 167 180 197 184 193 185 150 171 166 162 174 233 238 235 225 190 189 115 94 262 274 234 267 53 178 80 115 157 124 130 159 155 107 164 36 234 126 127 114 130 139 148 138 137 149 146 155 156
345 345 344 343 343 341 341 341 338 337 336 335 333 332 331 330 328 326 323 321 317 311 306 305 305 305 304 301 303 286 290 275 67 96 127 133 142 153 161 162 168 184 200 184 186 203 157 196 157 168 215 247 210 224 239 182 191 85 234 255 177 230 206 76 3 70 63 85 159 100 65 125 136 162 202 170 109 120 131 114 116 124 136 147 148 150 160 155
344 344 344 342 342 342 340 339 338 336 334 333 332 330 329 327 326 323 320 317 317 310 306 304 305 303 301 302 293 279 275 28 77 112 138 134 143 157 162 164 176 189 201 197 185 180 208 184 147 187 223 243 226 236 262 201 141 77 237 211 234 337 87 31 65 25 339 101 103 110 202 221 98 82 32 108 100 120 96 100 116 132 139 141 147 156 159 157
343 343 343 342 341 340 340 337 336 334 332 331 330 328 327 325 324 321 319 317 312 310 303 303 303 301 305 294 269 264 254 268 257 138 138 139 148 160 162 169 182 195 199 222 181 198 234 209 209 233 248 265 248 217 249 200 140 212 208 129 95 31 85 57 48 52 47 52 46 95 228 64 125 101 226 112 111 8 102 117 130 141 131 153 147 162 157 159
343 342 342 342 340 339 338 337 335 332 331 329 328 327 325 324 321 320 316 313 310 307 303 298 300 302 319 296 257 233 222 261 117 141 146 140 151 159 157 170 182 195 198 218 213 206 184 178 243 269 263 262 270 114 264 143 197 223 111 121 67 90 74 62 55 58 38 30 348 326 93 124 152 117 178 120 54 23 104 124 137 128 144 146 161 156 162 161
342 341 341 341 339 338 338 336 334 332 330 329 327 326 324 321 321 318 315 309 307 304 299 296 297 301 301 284 278 297 296 123 141 142 141 145 156 155 166 168 187 198 199 209 221 229 233 264 261 211 305 305 290 179 128 160 102 14 54 89 83 62 98 58 85 67 61 35 11 7 101 122 104 137 132 106 74 32 8 38 141 148 141 159 161 157 167 165
342 340 340 340 338 337 336 334 332 330 329 327 326 324 323 321 320 316 312 308 303 300 294 293 292 300 288 269 277 266 88 103 120 143 146 150 154 159 178 178 183 201 206 216 221 187 229 220 256 240 226 283 281 356 143 160 170 147 156 95 90 64 35 46 58 56 60 45 356 336 144 177 166 243 154 280 56 64 40 328 171 147 147 163 153 159 173 169
341 340 338 338 337 335 334 333 331 329 328 326 324 323 322 320 317 315 310 304 299 295 291 290 298 297 275 257 284 265 108 131 140 148 151 150 156 167 180 183 188 198 214 213 223 193 230 262 260 290 325 233 284 195 122 126 148 147 118 102 52 43 78 77 67 66 43 288 129 313 299 161 164 358 189 235 106 139 140 232 233 145 161 165 155 166 186 175
341 339 338 337 337 334 332 331 330 328 326 325 323 322 319 316 311 310 305 298 294 289 285 284 287 276 275 270 257 247 321 111 143 156 157 158 166 177 181 188 186 202 211 218 216 218 241 256 264 279 275 293 292 29 251 135 150 152 143 133 143 30 9 111 117 138 116 347 109 189 247 238 206 200 175 188 163 136 156 188 243 159 167 170 159 173 179 167
340 338 338 336 335 334 331 330 329 327 325 324 323 319 317 314 310 309 303 293 283 277 272 271 270 254 283 275 241 233 244 190 153 163 169 168 170 184 186 195 191 210 218 235 208 223 226 248 258 264 273 289 315 167 174 169 142 164 161 118 86 71 310 178 113 119 142 205 165 195 198 221 208 204 174 170 170 161 166 185 201 159 165 167 168 166 178 164
339 337 336 335 334 333 331 329 328 326 324 323 321 317 314 311 307 305 300 283 281 279 282 280 273 267 263 264 289 16 187 217 155 167 182 180 185 184 196 204 201 208 226 254 241 221 266 262 256 257 267 278 290 323 203 137 149 145 136 145 168 175 163 167 164 139 158 178 191 208 238 176 201 206 164 171 174 176 169 178 205 171 172 164 170 166 181 167
338 337 334 334 333 332 330 329 327 325 323 322 318 314 312 307 303 300 294 283 265 258 262 263 240 254 222 257 255 222 91 283 230 184 181 191 198 188 198 205 212 213 226 232 253 239 244 246 251 265 270 267 268 271 311 38 324 135 148 215 204 200 123 169 159 157 189 173 187 188 193 156 179 176 172 174 176 178 161 187 191 188 166 163 174 164 184 171
336 335 334 333 332 331 330 328 326 322 322 319 317 313 307 301 295 296 291 275 290 294 239 248 215 229 293 282 284 62 194 207 222 207 185 198 196 206 189 197 218 223 226 234 235 261 283 292 273 285 288 262 249 243 248 179 215 199 211 236 197 175 142 153 177 181 189 167 182 215 137 154 159 170 172 171 172 179 168 181 180 201 158 166 173 164 184 176
335 333 333 331 329 329 328 326 325 324 321 317 316 308 301 294 290 289 294 276 251 221 227 256 290 193 260 69 113 222 204 219 224 204 198 201 201 221 194 200 210 225 223 241 244 242 245 249 248 251 228 256 279 264 237 223 212 230 190 205 269 147 153 145 159 182 172 174 182 213 180 163 151 163 171 189 182 172 167 177 184 172 170 171 174 172 187 172
334 332 332 329 326 328 327 325 324 324 321 317 314 298 291 287 293 286 252 235 230 222 230 252 265 275 248 259 258 224 219 223 194 210 207 192 216 214 224 202 212 229 228 227 236 254 234 243 242 257 296 289 286 268 247 281 313 219 174 154 184 157 165 134 162 181 170 198 167 159 207 130 147 151 175 199 186 185 174 176 172 169 175 178 178 177 180 173
332 331 330 328 325 326 326 323 323 322 322 317 299 280 263 260 261 234 257 183 198 187 222 193 192 193 201 182 217 242 216 218 190 204 200 201 199 228 227 227 222 210 225 229 223 218 235 258 242 265 263 278 242 259 267 323 302 336 304 49 162 119 151 174 153 166 169 166 160 48 160 142 142 156 154 156 200 163 184 164 157 169 171 178 190 181 177 177
331 329 329 326 326 324 324 322 319 319 326 324 335 319 229 225 181 189 212 224 231 241 280 148 197 234 277 285 219 218 308 180 193 196 206 197 203 208 227 227 216 225 231 223 227 226 246 239 240 255 245 236 297 294 284 287 323 310 265 261 118 126 147 126 139 164 166 182 134 189 247 132 143 146 146 153 179 165 154 169 168 160 167 179 186 190 178 177
330 329 327 326 325 323 321 319 315 315 320 309 302 292 282 339 329 48 211 225 219 236 250 262 229 236 252 270 237 182 163 189 237 182 223 176 213 201 215 220 222 220 222 233 233 301 251 243 248 243 261 293 288 289 299 296 294 292 290 354 99 141 126 140 141 161 121 192 130 158 179 135 138 148 143 155 155 158 161 168 163 160 171 174 180 174 196 176
330 329 327 326 324 323 320 315 314 309 310 286 261 259 281 304 10 321 307 294 249 227 234 251 252 244 247 252 285 144 189 222 197 225 205 202 196 217 192 217 216 230 216 218 230 214 238 265 252 250 260 258 253 274 284 276 293 289 287 259 187 85 106 131 130 150 126 167 167 124 140 115 136 145 140 152 157 154 162 172 158 161 175 169 180 170 184 174
329 328 328 325 325 322 320 312 310 308 299 229 227 238 256 287 322 321 309 282 277 269 255 231 231 241 237 235 238 109 245 218 213 202 206 202 202 213 217 205 222 227 233 218 225 216 226 230 255 274 254 248 257 258 275 284 282 267 259 329 80 177 167 140 134 132 129 161 151 148 225 138 131 133 142 150 136 150 153 157 155 160 173 165 177 175 177 180
328 327 326 327 325 324 319 315 306 290 224 228 244 260 283 292 289 310 304 283 292 276 237 223 227 224 228 222 200 209 211 226 243 192 201 192 221 192 232 224 218 227 232 231 223 234 232 236 248 250 264 262 261 268 275 273 269 249 256 215 175 216 131 141 143 145 146 177 158 83 63 140 138 146 144 138 137 168 147 157 149 154 169 172 160 187 172 182
326 326 326 326 327 321 319 315 301 236 234 224 245 254 255 267 298 304 302 289 247 242 238 238 212 219 219 221 217 209 201 244 235 238 185 198 209 208 217 235 241 224 230 234 238 233 243 276 264 259 275 292 285 277 256 253 247 258 199 230 62 323 129 124 136 158 158 156 154 134 123 121 158 155 152 145 150 162 158 154 154 155 161 180 160 174 174 179
324 323 325 325 326 328 310 294 345 348 320 283 269 319 332 323 339 347 290 283 279 249 156 221 174 202 203 198 213 208 215 229 220 236 201 191 212 230 194 232 220 240 226 234 238 241 204 243 278 274 258 254 261 259 251 254 251 241 238 238 209 251 307 138 174 168 129 187 260 188 222 131 162 231 143 161 154 152 183 169 158 162 164 174 169 165 184 186
320 318 321 324 324 337 333 1 350 315 294 312 353 350 345 322 30 293 271 230 256 172 166 103 169 112 203 185 196 184 214 211 202 225 230 174 208 206 248 215 219 246 260 238 233 220 118 44 286 256 249 259 256 256 238 241 243 261 135 338 99 183 220 227 170 168 163 155 189 243 119 151 169 220 152 164 159 158 169 183 192 163 179 167 180 173 182 185
315 315 317 320 315 316 276 300 310 295 276 324 340 339 312 334 322 259 267 276 228 147 166 155 300 129 233 178 193 201 227 161 195 200 232 174 202 200 231 238 230 224 216 246 243 288 174 161 240 252 234 239 248 267 274 250 244 278 337 7 273 250 221 209 157 185 172 166 178 232 137 170 151 180 147 166 174 178 180 180 201 165 184 183 177 170 176 187
312 313 315 318 314 291 257 241 263 268 277 320 322 308 320 312 267 283 268 270 97 183 61 168 145 187 223 197 189 204 218 232 217 171 206 199 186 230 209 237 256 251 236 217 245 201 207 228 229 236 232 233 244 250 254 251 244 221 39 286 278 291 308 309 164 217 159 243 223 200 161 169 142 190 195 196 200 190 183 187 189 184 187 202 181 171 189 192
309 311 312 320 316 291 201 213 241 250 271 291 305 297 288 269 256 233 204 250 154 199 174 94 188 179 201 189 195 194 222 231 244 163 189 207 174 216 247 237 232 251 261 241 238 246 201 193 267 258 224 234 250 258 258 246 245 259 320 285 232 225 227 264 280 180 149 261 221 222 215 138 199 195 197 194 208 199 185 182 187 189 189 190 187 180 188 191
307 306 307 311 295 307 323 266 242 237 244 264 279 284 273 257 247 249 233 8 201 115 143 143 179 169 189 200 198 195 220 226 222 193 180 191 191 202 224 231 242 250 245 257 237 229 186 188 215 232 212 232 246 245 255 251 256 258 266 256 241 195 243 222 212 215 230 201 230 223 203 158 223 174 204 200 198 203 184 180 183 189 185 184 193 195 188 179
306 302 296 289 268 283 253 236 48 10 357 330 310 272 226 235 211 234 230 90 263 137 210 176 182 184 192 203 217 187 206 214 224 193 186 180 201 197 199 235 188 224 231 231 241 221 219 206 205 228 210 218 204 244 239 244 229 249 257 259 252 216 222 208 203 227 221 261 224 314 208 203 227 182 209 202 183 201 180 181 187 185 184 181 180 192 218 183
305 301 294 275 251 224 233 250 291 311 313 302 291 245 222 241 229 218 249 245 115 167 186 192 162 189 192 197 217 194 197 216 204 204 193 182 218 195 204 220 213 215 238 202 245 234 223 212 202 218 212 206 241 217 227 220 207 216 227 241 252 192 222 245 222 243 253 216 230 156 225 228 150 229 233 193 214 193 168 178 177 175 181 172 176 187 209 191
305 302 295 261 224 216 232 240 251 266 271 277 257 225 236 239 241 243 241 221 206 189 74 228 170 195 194 202 208 195 188 219 205 195 189 195 205 207 203 210 234 213 234 253 227 219 234 203 206 212 210 182 223 236 227 232 195 208 229 244 238 221 239 194 247 240 233 263 217 192 200 320 196 126 216 202 201 159 173 184 148 148 146 161 174 185 189 184
306 296 267 257 226 230 228 232 243 242 258 256 231 230 218 228 249 249 226 238 230 168 235 225 219 186 195 209 209 200 207 196 222 193 193 219 193 226 201 205 210 241 227 240 232 262 233 229 212 205 230 185 212 225 239 234 229 194 209 234 261 219 169 256 227 254 237 234 227 216 201 143 355 157 179 202 188 178 158 144 152 167 159 149 170 170 195 193
301 290 241 222 202 217 205 211 222 227 231 232 226 219 228 229 227 209 279 334 321 287 200 174 230 208 211 193 205 219 181 242 190 222 196 214 216 209 220 203 205 208 232 233 229 237 236 248 206 192 202 215 201 208 226 246 244 196 242 216 221 272 240 203 214 246 276 308 305 320 178 190 145 175 173 185 139 209 98 112 136 134 156 171 189 186 199 207
310 303 264 223 218 193 178 190 191 203 219 232 227 230 230 242 255 284 307 223 24 313 322 198 181 242 201 204 200 214 180 212 206 200 216 193 224 219 212 219 203 199 220 241 229 255 281 265 201 206 193 215 202 200 223 219 252 241 215 238 224 206 247 271 267 188 225 248 218 215 234 192 191 308 175 168 195 171 185 189 186 144 152 172 184 202 196 188
309 297 284 274 213 163 161 176 181 191 214 221 231 248 257 253 242 251 253 301 277 251 272 255 193 212 236 223 194 206 179 195 198 196 234 184 236 197 217 227 200 212 202 217 260 214 238 255 217 237 233 193 206 199 208 227 219 243 241 309 281 167 199 232 265 252 263 242 264 223 234 282 146 183 56 147 204 181 176 151 147 136 186 187 181 172 152 164
271 284 276 206 144 143 156 165 190 186 206 219 230 240 246 261 282 292 320 23 290 301 264 240 277 186 271 255 233 190 193 194 209 200 213 188 223 175 216 212 212 203 208 205 222 251 277 292 254 201 231 189 204 206 216 201 212 231 254 257 225 316 294 257 181 264 284 275 223 252 244 201 171 221 180 195 200 99 102 99 78 319 6 89 356 169 170 164
261 249 174 124 135 145 149 172 189 201 212 222 222 240 253 255 251 255 246 241 262 242 244 286 232 284 243 257 264 237 182 204 210 209 202 164 225 163 214 186 242 190 205 204 227 225 243 221 283 212 205 201 203 201 221 207 202 204 228 234 261 233 218 281 205 203 220 239 273 324 322 325 349 101 30 18 105 126 127 102 61 351 208 82 82 52 95 303
287 277 123 151 146 144 158 177 201 199 214 231 248 251 241 246 247 252 273 55 288 249 275 268 284 274 327 288 229 270 226 198 209 231 181 215 200 193 206 201 211 233 181 208 221 215 244 222 240 255 202 200 219 185 222 223 212 213 208 228 236 247 219 212 271 281 254 260 223 219 250 223 115 156 57 354 84 58 110 106 101 125 104 81 83 130 157 174
285 249 136 162 144 163 171 183 208 209 222 228 226 231 249 285 281 281 323 218 221 270 228 268 270 285 288 291 289 232 259 218 218 234 190 238 177 245 147 244 187 240 190 205 216 209 239 250 243 243 236 210 213 207 198 229 231 225 213 217 209 245 260 233 261 208 244 263 290 228 260 140 77 80 86 305 65 59 74 189 111 84 55 123 153 163 175 165
230 258 126 166 164 184 195 211 204 211 223 232 242 245 247 229 261 276 261 261 267 217 262 257 255 254 255 275 287 292 257 257 226 217 226 203 243 198 170 197 240 215 228 195 208 225 192 250 251 269 282 240 208 223 197 203 240 238 226 218 203 214 221 242 230 225 223 213 245 236 224 160 81 65 138 32 337 110 233 125 135 156 108 93 108 136 137 158
311 306 151 155 181 193 217 217 201 215 221 230 236 251 241 252 232 234 240 256 256 236 228 244 250 255 281 243 257 259 279 286 232 235 216 208 224 208 195 192 195 225 206 185 225 161 226 191 257 258 239 261 253 202 216 195 206 236 245 227 247 246 226 227 227 246 259 230 242 230 245 251 111 98 130 346 313 289 95 75 81 69 69 81 117 91 76 128
295 266 182 157 184 209 224 231 242 236 217 221 229 235 246 225 240 266 269 241 229 264 259 221 244 244 221 254 267 254 242 246 258 246 285 255 244 217 183 212 159 237 194 215 209 162 214 188 186 236 235 220 218 208 207 207 198 212 232 246 215 237 257 265 255 212 231 189 232 261 254 169 128 192 343 246 231 242 133 235 183 160 145 133 127 145 170 132
285 302 146 161 185 207 247 270 287 291 291 284 256 249 243 255 233 214 239 260 261 231 227 275 224 219 257 225 230 248 258 229 256 274 243 255 245 233 200 189 154 211 214 223 215 235 207 228 206 209 244 244 232 251 205 214 237 216 215 222 244 233 228 242 282 276 259 292 258 225 266 231 188 173 201 234 250 274 175 200 233 165 141 125 120 126 142 127
312 274 333 240 182 215 240 231 237 248 255 252 272 238 229 239 257 225 193 239 225 262 274 229 255 244 215 249 253 231 231 253 231 251 244 250 252 244 207 223 182 183 318 166 191 258 251 231 224 214 221 250 269 261 253 228 227 219 224 227 227 252 255 234 225 240 251 268 248 233 199 241 233 230 204 203 201 235 27 36 6 101 120 126 131 122 135 123
270 308 321 36 302 230 216 230 246 254 248 232 267 294 248 227 229 256 166 223 252 214 240 216 241 251 264 225 226 253 239 237 238 232 233 236 246 246 245 216 212 139 141 217 181 228 248 255 238 236 225 229 244 262 269 259 243 257 241 232 237 220 238 253 254 252 250 235 245 204 193 246 272 246 257 2 258 92 67 46 30 53 71 76 115 130 144 147
322 330 300 12 325 296 281 285 255 254 257 258 247 251 278 281 251 218 223 196 224 251 208 249 217 226 242 245 241 250 246 247 234 251 238 227 242 249 261 195 230 236 179 239 220 198 243 248 267 242 250 238 234 248 251 259 263 232 229 236 232 246 246 227 233 248 248 252 255 243 181 223 220 230 298 71 76 85 82 91 98 49 331 344 4 19 12 9
11 343 332 335 318 296 287 276 268 263 266 274 289 255 270 266 259 247 216 259 227 227 196 238 257 226 218 232 235 241 258 261 218 279 335 306 264 240 239 240 224 225 247 208 220 198 224 225 248 272 261 243 241 234 238 249 252 265 256 233 234 229 223 231 234 230 242 255 263 256 218 209 198 127 145 101 85 62 79 107 120 140 122 62 45 43 67 250
331 324 326 316 312 303 297 277 272 264 262 242 241 241 250 249 254 272 273 210 258 277 263 257 254 297 323 271 233 328 330 296 324 268 299 266 288 290 258 86 333 276 230 224 199 226 191 241 232 240 253 262 253 245 235 233 242 248 248 253 247 255 269 251 242 254 246 232 222 244 239 203 105 110 114 126 126 124 103 86 98 73 76 93 119 176 183 180
344 334 321 296 288 287 282 271 272 275 263 261 259 259 253 250 263 199 258 266 271 271 310 331 342 306 283 253 252 152 237 302 297 327 295 287 279 280 278 268 217 249 255 239 219 232 209 213 236 236 247 250 251 259 250 232 231 236 237 237 243 257 266 250 228 247 278 294 280 250 265 90 118 124 125 117 239 186 126 37 76 73 87 122 150 148 145 107